ROT366T LGAV-LROP

Flight info

Callsign ROT366T
Flight time 1h 12m
Altitude 34000
Route ROPOX M749 SKP L617 TSL M987 ATFIR N133 USALI Q24 SOMOV DCT SORDU
Aircraft B738/M-SDE2E3FGHIRWXY/LB1

Departure

Time 2026-05-06 09:27
Airport Athens Eleftherios Venizelos International Airport (LGAV)

Arrival

Time 2026-05-06 10:39
Airport Bucharest Henri Coandă International Airport (LROP)
Time Latitude Longitude Altitude Speed Heading
2026-05-06 09:12 37.92749 23.94143 276 ft 0 kts 36°
2026-05-06 09:17 37.92746 23.94141 276 ft 2 kts 37°
2026-05-06 09:17 37.92735 23.94130 276 ft 2 kts 36°
2026-05-06 09:17 37.92722 23.94119 277 ft 2 kts 36°
2026-05-06 09:17 37.92710 23.94107 277 ft 2 kts 36°
2026-05-06 09:18 37.92697 23.94096 277 ft 2 kts 44°
2026-05-06 09:18 37.92691 23.94079 276 ft 2 kts 84°
2026-05-06 09:18 37.92693 23.94060 276 ft 2 kts 117°
2026-05-06 09:18 37.92697 23.94053 276 ft 1 kts 131°
2026-05-06 09:19 37.92699 23.94050 276 ft 0 kts 127°
2026-05-06 09:21 37.92679 23.94083 277 ft 9 kts 127°
2026-05-06 09:22 37.92640 23.94148 278 ft 10 kts 126°
2026-05-06 09:22 37.92590 23.94233 278 ft 9 kts 126°
2026-05-06 09:22 37.92562 23.94282 278 ft 0 kts 126°
2026-05-06 09:23 37.92555 23.94293 278 ft 5 kts 127°
2026-05-06 09:23 37.92529 23.94338 278 ft 6 kts 127°
2026-05-06 09:23 37.92500 23.94387 277 ft 7 kts 127°
2026-05-06 09:24 37.92496 23.94455 276 ft 8 kts 59°
2026-05-06 09:24 37.92517 23.94479 276 ft 0 kts 37°
2026-05-06 09:26 37.92518 23.94480 276 ft 1 kts 37°
2026-05-06 09:26 37.92664 23.94620 278 ft 63 kts 37°
2026-05-06 09:26 37.93220 23.95146 277 ft 132 kts 37°
2026-05-06 09:26 37.93778 23.95679 307 ft 164 kts 38°
2026-05-06 09:27 37.94988 23.96838 1221 ft 166 kts 37°
2026-05-06 09:27 37.95910 23.97723 1860 ft 173 kts 38°
2026-05-06 09:27 37.96900 23.98680 2206 ft 185 kts 37°
2026-05-06 09:27 37.97946 23.99643 2717 ft 191 kts 34°
2026-05-06 09:28 37.99110 24.00671 2980 ft 216 kts 34°
2026-05-06 09:28 38.00379 24.01808 3500 ft 226 kts 35°
2026-05-06 09:28 38.01629 24.02965 4256 ft 227 kts 36°
2026-05-06 09:28 38.02897 24.04131 5052 ft 226 kts 35°
2026-05-06 09:29 38.04184 24.05287 5756 ft 229 kts 32°
2026-05-06 09:29 38.05695 24.05962 6227 ft 242 kts
2026-05-06 09:29 38.07375 24.05726 6768 ft 252 kts 349°
2026-05-06 09:29 38.09173 24.05310 7256 ft 267 kts 352°
2026-05-06 09:30 38.11024 24.05033 7975 ft 272 kts 355°
2026-05-06 09:30 38.12904 24.04857 8757 ft 275 kts 356°
2026-05-06 09:30 38.14815 24.04717 9604 ft 276 kts 356°
2026-05-06 09:30 38.16754 24.04578 10380 ft 281 kts 356°
2026-05-06 09:31 38.18739 24.04429 10872 ft 296 kts 356°
2026-05-06 09:31 38.20851 24.04263 11381 ft 310 kts 355°
2026-05-06 09:31 38.22305 24.04147 11804 ft 317 kts 355°
2026-05-06 09:31 38.25246 24.03912 12882 ft 322 kts 355°
2026-05-06 09:32 38.27505 24.03730 13700 ft 326 kts 355°
2026-05-06 09:32 38.29022 24.03608 14293 ft 327 kts 355°
2026-05-06 09:32 38.32032 24.03366 15400 ft 331 kts 354°
2026-05-06 09:32 38.34331 24.03181 16232 ft 334 kts 354°
2026-05-06 09:33 38.36664 24.02993 17011 ft 338 kts 354°
2026-05-06 09:33 38.39012 24.02804 17825 ft 339 kts 354°
2026-05-06 09:33 38.41398 24.02612 18538 ft 343 kts 354°
2026-05-06 09:33 38.43785 24.02419 19270 ft 346 kts 354°
2026-05-06 09:34 38.46189 24.02224 19969 ft 349 kts 354°
2026-05-06 09:34 38.48628 24.02027 20650 ft 352 kts 354°
2026-05-06 09:34 38.51075 24.01830 21338 ft 354 kts 354°
2026-05-06 09:34 38.53534 24.01632 21984 ft 357 kts 353°
2026-05-06 09:35 38.56004 24.01433 22625 ft 359 kts 353°
2026-05-06 09:35 38.58518 24.01229 23186 ft 363 kts 353°
2026-05-06 09:35 38.61050 24.01024 23811 ft 365 kts 353°
2026-05-06 09:35 38.63587 24.00817 24397 ft 368 kts 353°
2026-05-06 09:36 38.66132 24.00611 24967 ft 370 kts 353°
2026-05-06 09:36 38.68744 24.00399 25548 ft 373 kts 353°
2026-05-06 09:36 38.71300 24.00192 26100 ft 375 kts 353°
2026-05-06 09:36 38.73935 23.99977 26551 ft 379 kts 353°
2026-05-06 09:37 38.76561 23.99764 27077 ft 381 kts 353°
2026-05-06 09:37 38.79253 23.99545 27607 ft 383 kts 353°
2026-05-06 09:37 38.81909 23.99328 28044 ft 386 kts 353°
2026-05-06 09:37 38.84596 23.99109 28534 ft 388 kts 353°
2026-05-06 09:38 38.87295 23.98889 28998 ft 390 kts 353°
2026-05-06 09:38 38.90049 23.98664 29392 ft 394 kts 353°
2026-05-06 09:38 38.92764 23.98442 29872 ft 395 kts 353°
2026-05-06 09:38 38.95512 23.98217 30345 ft 397 kts 353°
2026-05-06 09:39 38.98298 23.97989 30741 ft 400 kts 353°
2026-05-06 09:39 39.01086 23.97761 31114 ft 403 kts 353°
2026-05-06 09:39 39.03900 23.97530 31457 ft 407 kts 353°
2026-05-06 09:39 39.06722 23.97299 31882 ft 409 kts 353°
2026-05-06 09:40 39.09565 23.97066 32259 ft 412 kts 353°
2026-05-06 09:40 39.12403 23.96832 32636 ft 414 kts 353°
2026-05-06 09:40 39.18186 23.96354 33376 ft 420 kts 353°
2026-05-06 09:41 39.21097 23.96114 33895 ft 419 kts 353°
2026-05-06 09:41 39.24009 23.95873 34048 ft 422 kts 353°
2026-05-06 09:41 39.29809 23.95399 34050 ft 414 kts 353°
2026-05-06 09:42 39.35552 23.94926 34051 ft 415 kts 353°
2026-05-06 09:42 39.41340 23.94446 34049 ft 416 kts 353°
2026-05-06 09:43 39.47102 23.93968 34049 ft 414 kts 353°
2026-05-06 09:43 39.52854 23.93492 34049 ft 413 kts 353°
2026-05-06 09:44 39.58587 23.93016 34050 ft 412 kts 353°
2026-05-06 09:44 39.64330 23.92536 34049 ft 414 kts 353°
2026-05-06 09:45 39.70062 23.92057 34049 ft 413 kts 353°
2026-05-06 09:45 39.75822 23.91575 34049 ft 413 kts 353°
2026-05-06 09:46 39.81525 23.91097 34050 ft 412 kts 353°
2026-05-06 09:46 39.87227 23.90618 34049 ft 411 kts 353°
2026-05-06 09:47 39.91933 23.90224 34049 ft 410 kts 353°
2026-05-06 09:47 39.98598 23.89662 34049 ft 410 kts 353°
2026-05-06 09:48 40.04268 23.89183 34049 ft 411 kts 353°
2026-05-06 09:48 40.09995 23.88699 34049 ft 410 kts 353°
2026-05-06 09:49 40.15599 23.88226 34049 ft 410 kts 353°
2026-05-06 09:49 40.21307 23.87742 34050 ft 411 kts 353°
2026-05-06 09:50 40.26991 23.87259 34049 ft 409 kts 353°
2026-05-06 09:50 40.32655 23.86777 34052 ft 411 kts 353°
2026-05-06 09:51 40.38354 23.86293 34055 ft 410 kts 353°
2026-05-06 09:51 40.44039 23.85808 34058 ft 410 kts 353°
2026-05-06 09:52 40.49737 23.85320 34061 ft 410 kts 353°
2026-05-06 09:52 40.54509 23.84911 34061 ft 410 kts 353°
2026-05-06 09:53 40.61133 23.84342 34059 ft 410 kts 353°
2026-05-06 09:53 40.66840 23.83852 34057 ft 410 kts 353°
2026-05-06 09:54 40.72543 23.83363 34054 ft 410 kts 353°
2026-05-06 09:54 40.78239 23.82871 34054 ft 410 kts 353°
2026-05-06 09:55 40.83877 23.82385 34055 ft 410 kts 353°
2026-05-06 09:55 40.89603 23.81889 34054 ft 410 kts 353°
2026-05-06 09:56 40.95268 23.81397 34055 ft 409 kts 353°
2026-05-06 09:56 41.00986 23.80900 34057 ft 412 kts 353°
2026-05-06 09:57 41.06707 23.80403 34067 ft 410 kts 353°
2026-05-06 09:57 41.12279 23.79918 34073 ft 411 kts 353°
2026-05-06 09:58 41.18032 23.79415 34082 ft 411 kts 353°
2026-05-06 09:58 41.22808 23.78999 34085 ft 409 kts 353°
2026-05-06 09:59 41.29469 23.78414 34090 ft 417 kts 353°
2026-05-06 09:59 41.34331 23.77984 34088 ft 425 kts 353°
2026-05-06 10:00 41.41186 23.77377 34090 ft 422 kts 353°
2026-05-06 10:00 41.47047 23.76628 34097 ft 421 kts 351°
2026-05-06 10:01 41.52834 23.75760 34101 ft 422 kts 351°
2026-05-06 10:01 41.58677 23.74885 34107 ft 423 kts 351°
2026-05-06 10:02 41.64547 23.74027 34113 ft 423 kts 351°
2026-05-06 10:02 41.70364 23.73189 34117 ft 423 kts 351°
2026-05-06 10:03 41.76207 23.72351 34124 ft 422 kts 352°
2026-05-06 10:03 41.82056 23.71514 34123 ft 423 kts 351°
2026-05-06 10:04 41.87957 23.70665 34122 ft 425 kts 351°
2026-05-06 10:04 41.93809 23.69824 34123 ft 424 kts 352°
2026-05-06 10:05 41.99655 23.68983 34122 ft 423 kts 351°
2026-05-06 10:05 42.05542 23.68133 34122 ft 425 kts 351°
2026-05-06 10:06 42.11338 23.67295 34123 ft 424 kts 351°
2026-05-06 10:06 42.17190 23.66448 34117 ft 425 kts 351°
2026-05-06 10:07 42.23067 23.66920 34112 ft 435 kts 16°
2026-05-06 10:07 42.25789 23.68848 34125 ft 445 kts 28°
2026-05-06 10:07 42.28298 23.71136 34111 ft 447 kts 30°
2026-05-06 10:08 42.33276 23.76032 34107 ft 447 kts 31°
2026-05-06 10:08 42.38295 23.81011 34091 ft 445 kts 31°
2026-05-06 10:09 42.43285 23.85887 34084 ft 445 kts 30°
2026-05-06 10:09 42.48347 23.90775 34069 ft 445 kts 30°
2026-05-06 10:10 42.53395 23.95623 34065 ft 446 kts 30°
2026-05-06 10:10 42.57608 23.99667 34073 ft 445 kts 30°
2026-05-06 10:11 42.63518 24.05344 34081 ft 444 kts 30°
2026-05-06 10:11 42.68536 24.10175 34091 ft 443 kts 30°
2026-05-06 10:12 42.73566 24.15027 34095 ft 441 kts 30°
2026-05-06 10:12 42.78573 24.19863 34091 ft 443 kts 30°
2026-05-06 10:13 42.83597 24.24727 34093 ft 444 kts 30°
2026-05-06 10:13 42.88635 24.29616 34077 ft 443 kts 30°
2026-05-06 10:14 42.93643 24.34486 34060 ft 443 kts 30°
2026-05-06 10:14 42.98668 24.39384 34045 ft 443 kts 30°
2026-05-06 10:15 43.03682 24.44276 34038 ft 445 kts 30°
2026-05-06 10:15 43.07885 24.48388 34034 ft 444 kts 30°
2026-05-06 10:16 43.13715 24.54101 34034 ft 443 kts 30°
2026-05-06 10:16 43.18715 24.59013 34029 ft 443 kts 30°
2026-05-06 10:17 43.23726 24.63947 34022 ft 444 kts 30°
2026-05-06 10:17 43.28708 24.68860 34012 ft 444 kts 31°
2026-05-06 10:18 43.31224 24.71346 33882 ft 447 kts 31°
2026-05-06 10:18 43.33741 24.73833 33468 ft 446 kts 31°
2026-05-06 10:18 43.36269 24.76335 32886 ft 446 kts 31°
2026-05-06 10:18 43.38799 24.78842 32168 ft 448 kts 32°
2026-05-06 10:19 43.41338 24.81359 31378 ft 450 kts 32°
2026-05-06 10:19 43.43856 24.83858 30563 ft 451 kts 32°
2026-05-06 10:19 43.46377 24.86363 29693 ft 452 kts 32°
2026-05-06 10:19 43.48931 24.88905 28781 ft 453 kts 32°
2026-05-06 10:20 43.51481 24.91441 27905 ft 452 kts 32°
2026-05-06 10:20 43.54021 24.93848 27050 ft 440 kts 30°
2026-05-06 10:20 43.56589 24.96116 26065 ft 434 kts 29°
2026-05-06 10:20 43.59132 24.98280 25084 ft 428 kts 28°
2026-05-06 10:21 43.61629 25.00380 24130 ft 421 kts 28°
2026-05-06 10:21 43.63212 25.01713 23643 ft 415 kts 29°
2026-05-06 10:21 43.65650 25.03781 22991 ft 401 kts 29°
2026-05-06 10:21 43.67974 25.05767 22386 ft 389 kts 30°
2026-05-06 10:22 43.70266 25.07739 21789 ft 399 kts 30°
2026-05-06 10:22 43.72675 25.09819 21127 ft 407 kts 31°
2026-05-06 10:22 43.75011 25.11849 20475 ft 398 kts 31°
2026-05-06 10:22 43.77309 25.13859 19846 ft 384 kts 31°
2026-05-06 10:23 43.79546 25.15821 19257 ft 378 kts 31°
2026-05-06 10:23 43.81738 25.17746 18642 ft 375 kts 32°
2026-05-06 10:23 43.83942 25.19685 18038 ft 372 kts 32°
2026-05-06 10:23 43.86094 25.21581 17448 ft 369 kts 32°
2026-05-06 10:24 43.88242 25.23475 16846 ft 366 kts 32°
2026-05-06 10:24 43.90392 25.25372 16242 ft 363 kts 32°
2026-05-06 10:24 43.92500 25.27234 15642 ft 360 kts 32°
2026-05-06 10:24 43.94593 25.29082 15054 ft 357 kts 32°
2026-05-06 10:25 43.96661 25.30910 14461 ft 354 kts 32°
2026-05-06 10:25 43.98722 25.32733 13871 ft 351 kts 32°
2026-05-06 10:25 44.00786 25.34561 13282 ft 348 kts 32°
2026-05-06 10:25 44.02807 25.36353 12695 ft 345 kts 32°
2026-05-06 10:26 44.04813 25.38133 12118 ft 343 kts 32°
2026-05-06 10:26 44.06810 25.39906 11544 ft 341 kts 32°
2026-05-06 10:26 44.08789 25.41664 11079 ft 335 kts 32°
2026-05-06 10:26 44.10660 25.43329 10816 ft 325 kts 32°
2026-05-06 10:27 44.12437 25.44911 10677 ft 312 kts 32°
2026-05-06 10:27 44.14225 25.46504 10546 ft 299 kts 32°
2026-05-06 10:27 44.15930 25.48025 10411 ft 287 kts 32°
2026-05-06 10:27 44.17590 25.49506 10278 ft 276 kts 32°
2026-05-06 10:28 44.19186 25.50930 10125 ft 267 kts 32°
2026-05-06 10:28 44.20729 25.52308 9824 ft 264 kts 31°
2026-05-06 10:28 44.22275 25.53690 9468 ft 264 kts 31°
2026-05-06 10:28 44.23803 25.55056 9142 ft 262 kts 31°
2026-05-06 10:29 44.25342 25.56432 8816 ft 260 kts 31°
2026-05-06 10:29 44.26860 25.57792 8494 ft 259 kts 31°
2026-05-06 10:29 44.28374 25.59147 8170 ft 257 kts 31°
2026-05-06 10:29 44.29892 25.60508 7850 ft 256 kts 31°
2026-05-06 10:30 44.31377 25.61839 7533 ft 255 kts 31°
2026-05-06 10:30 44.32872 25.63181 7214 ft 254 kts 31°
2026-05-06 10:30 44.34347 25.64506 6896 ft 253 kts 31°
2026-05-06 10:30 44.35820 25.65830 6585 ft 252 kts 32°
2026-05-06 10:31 44.37307 25.67167 6266 ft 251 kts 32°
2026-05-06 10:31 44.38775 25.68486 5951 ft 250 kts 32°
2026-05-06 10:31 44.40241 25.69805 5634 ft 249 kts 32°
2026-05-06 10:31 44.41692 25.71112 5330 ft 248 kts 32°
2026-05-06 10:32 44.43153 25.72428 5015 ft 248 kts 32°
2026-05-06 10:32 44.44575 25.73710 4850 ft 241 kts 32°
2026-05-06 10:32 44.45983 25.74981 4627 ft 238 kts 33°
2026-05-06 10:32 44.47353 25.76218 4415 ft 234 kts 33°
2026-05-06 10:33 44.48710 25.77443 4207 ft 230 kts 33°
2026-05-06 10:33 44.49614 25.78260 4040 ft 229 kts 33°
2026-05-06 10:33 44.51401 25.79876 3695 ft 228 kts 33°
2026-05-06 10:33 44.52728 25.81077 3461 ft 226 kts 33°
2026-05-06 10:34 44.53985 25.82377 3226 ft 224 kts 45°
2026-05-06 10:34 44.54799 25.84190 3015 ft 219 kts 76°
2026-05-06 10:34 44.54966 25.86256 2960 ft 207 kts 88°
2026-05-06 10:34 44.55031 25.88224 2965 ft 198 kts 87°
2026-05-06 10:35 44.55061 25.88989 2969 ft 192 kts 87°
2026-05-06 10:35 44.55108 25.89951 2968 ft 185 kts 85°
2026-05-06 10:35 44.55225 25.91682 2829 ft 182 kts 84°
2026-05-06 10:36 44.55357 25.93453 2498 ft 176 kts 84°
2026-05-06 10:36 44.55508 25.95127 2186 ft 167 kts 83°
2026-05-06 10:36 44.55656 25.96644 1984 ft 153 kts 83°
2026-05-06 10:36 44.55788 25.98082 1671 ft 146 kts 84°
2026-05-06 10:37 44.55900 25.99467 1396 ft 143 kts 85°
2026-05-06 10:37 44.55989 26.00861 1142 ft 143 kts 87°
2026-05-06 10:37 44.56067 26.02230 950 ft 140 kts 86°
2026-05-06 10:37 44.56180 26.03607 818 ft 142 kts 83°
2026-05-06 10:38 44.56284 26.04987 666 ft 146 kts 85°
2026-05-06 10:38 44.56377 26.06368 485 ft 141 kts 86°
2026-05-06 10:38 44.56475 26.07748 338 ft 139 kts 85°
2026-05-06 10:38 44.56560 26.08915 304 ft 91 kts 83°
2026-05-06 10:39 44.56609 26.09560 306 ft 59 kts 83°
2026-05-06 10:39 44.56647 26.10142 303 ft 50 kts 82°
2026-05-06 10:39 44.56687 26.10594 303 ft 32 kts 82°
2026-05-06 10:39 44.56796 26.10756 303 ft 21 kts 353°
2026-05-06 10:40 44.56943 26.10735 305 ft 20 kts 352°
2026-05-06 10:40 44.57044 26.10623 306 ft 18 kts 297°
2026-05-06 10:40 44.57067 26.10455 306 ft 17 kts 263°
2026-05-06 10:40 44.57058 26.10347 306 ft 19 kts 263°
2026-05-06 10:41 44.57035 26.10066 307 ft 22 kts 265°
2026-05-06 10:41 44.57019 26.09845 309 ft 21 kts 263°
2026-05-06 10:41 44.57003 26.09639 309 ft 21 kts 265°
2026-05-06 10:41 44.56988 26.09436 309 ft 21 kts 263°
2026-05-06 10:42 44.56970 26.09219 306 ft 23 kts 265°
2026-05-06 10:42 44.56955 26.08995 306 ft 23 kts 263°
2026-05-06 10:42 44.56935 26.08770 305 ft 23 kts 263°
2026-05-06 10:42 44.56914 26.08557 308 ft 21 kts 248°
2026-05-06 10:43 44.56919 26.08394 310 ft 13 kts 344°
2026-05-06 10:43 44.56949 26.08306 312 ft 9 kts 265°
2026-05-06 10:43 44.56944 26.08222 313 ft 7 kts 264°
2026-05-06 10:44 44.56938 26.08134 316 ft 6 kts 264°
2026-05-06 10:44 44.56974 26.08083 317 ft 9 kts 354°
2026-05-06 10:44 44.57016 26.08077 317 ft 0 kts 353°